Location: Hurstbourne Priors
(51.2000°N, 1.3667°W)
Time: 03:53:09
(UTC+00:00)

Vanguard 1 - Visible Passes

Search period start: 14 April 2021 00:00
Search period end: 24 April 2021 00:00
Orbit: 648 x 3834 km, 34.3° (Epoch: 12 April)

Date Brightness Start Highest point End Pass type
(mag) Time Alt. Az. Time Alt. Az. Time Alt. Az.
14 Apr 13.4 19:22:16 10° W 19:43:00 43° SSW 20:00:35 10° SE visible
14 Apr 13.3 21:49:16 10° W 22:04:46 24° SW 22:14:03 16° S visible
15 Apr 13.4 19:43:26 10° W 20:03:35 40° SSW 20:20:40 10° SE visible
15 Apr 13.5 22:11:50 10° W 22:24:42 19° SW 22:33:42 13° SSW visible
16 Apr 13.4 20:04:45 10° W 20:24:02 35° SSW 20:40:28 10° SSE visible
16 Apr 13.6 22:35:41 10° W 22:44:32 14° SW 22:52:21 10° SSW visible
17 Apr 13.5 20:26:16 10° W 20:44:21 31° SW 20:59:56 10° SSE visible
18 Apr 13.6 20:48:07 10° W 21:04:32 26° SW 21:18:55 10° S visible
19 Apr 13.7 21:10:32 10° W 21:24:36 20° SW 21:37:12 10° S visible
20 Apr 13.9 21:34:02 10° W 21:44:32 15° SW 21:54:15 10° SSW visible
21 Apr 13.7 19:26:05 10° W 19:43:43 31° SW 20:00:54 10° SSE visible
21 Apr 14.0 22:02:22 10° WSW 22:04:22 10° WSW 22:06:20 10° SW visible
22 Apr 13.8 19:47:51 10° W 20:04:01 26° SW 20:19:50 10° S visible
23 Apr 13.9 20:10:10 10° W 20:24:13 21° SW 20:38:02 10° S visible
